Regional Weather Roundup
Issued by NWS

Home | Current Version | Previous Version | Text Only | Print | Product List | Glossary On
Versions: 1 2 3 4 5 6 7 8 9 10 11 12 13 14 15 16 17 18 19 20 21 22 23 24 25 26 27 28 29 30 31 32 33 34 35 36 37 38 39 40 41 42 43 44 45 46 47 48 49 50
000
ASUS43 KTOP 232208
RWRKS

WEATHER ROUNDUP FOR KANSAS
NATIONAL WEATHER SERVICE GOODLAND KS
500 PM CDT TUE MAY 23 2017

NOTE:  "FAIR" INDICATES FEW OR NO CLOUDS BELOW 12,000 FEET WITH NO
SIGNIFICANT WEATHER AND/OR OBSTRUCTIONS TO VISIBILITY.

KSZ001>006-013>018-027>032-041>047-232300-
NORTHWEST KANSAS

CITY           SKY/WX    TMP DP  RH WIND       PRES   REMARKS
GOODLAND       CLOUDY    57  38  48 NW22G29   30.02F
HAYS           CLOUDY    63  40  42 N23       29.94F
HILL CITY      PTSUNNY   64  35  34 N25G35    29.97S
RUSSELL        CLOUDY    63  41  44 N28G35    29.92F
$$

KSZ061>065-074>080-084>089-232300-
SOUTHWEST KANSAS

CITY           SKY/WX    TMP DP  RH WIND       PRES   REMARKS
DODGE CITY     LGT RAIN  57  43  59 N12       29.98S
ELKHART          N/A     61  31  32 N12         N/A
GARDEN CITY    CLOUDY    65  37  35 N20G31    29.99F
GREAT BEND     LGT RAIN  59  44  57 NW13      29.94F
LIBERAL        CLOUDY    64  39  39 N21       30.01S
PRATT          LGT RAIN  57  42  58 NW18G26   29.95R
$$

KSZ066>073-081>083-090>101-232300-
SOUTHEAST KANSAS

CITY           SKY/WX    TMP DP  RH WIND       PRES   REMARKS
CHANUTE        CLOUDY    66  44  45 NW13      29.82
COFFEYVILLE    SUNNY     71  49  45 NW13      29.82F
HUTCHINSON     CLOUDY    59  41  51 NW15G29   29.90R
MEDICINE LODGE   N/A     67  41  38 N16       29.90F
NEWTON         LGT RAIN  57  46  66 NW12G23   29.89S
PARSONS        CLOUDY    67  47  48 NW13      29.83F
WICHITA INTL   CLOUDY    64  46  52 N13       29.88S
WICHITA JABRA  LGT RAIN  59  43  55 NW15G25   29.87F
WINFIELD       CLOUDY    66  43  43 NW15      29.88F
$$

KSZ007>012-019>026-033>040-048>060-102>105-232300-
NORTHEAST KANSAS

CITY           SKY/WX    TMP DP  RH WIND       PRES   REMARKS
CONCORDIA      CLOUDY    56  44  64 NW15G21   29.90S
EMPORIA        CLOUDY    60  47  61 W8        29.85R
LAWRENCE       CLOUDY    65  51  60 N7        29.81F
MANHATTAN      CLOUDY    62  48  60 NW7       29.86F
MARYSVILLE     CLOUDY    59  46  63 N20G25    29.85S
OLATHE IND     LGT RAIN  58  49  72 W9G24     29.82S
OLATHE EXE     CLOUDY    63  46  54 N15       29.81S
SALINA         CLOUDY    64  43  46 NW20G36   29.89F
TOPEKA BILLARD CLOUDY    57  51  80 NW18G28   29.83R
TOPEKA FORBES  CLOUDY    60  48  64 NW23G31   29.82S
$$




USA.gov is the U.S. government's official web portal to all federal, state and local government web resources and services.